Location: Taupo
(38.6830°S, 176.0830°E)
Time: 23:59:19
(UTC+13:00)

Cosmos 2278 Rocket - Pass Details

Date: 24 January 2019
Orbit: 839 x 847 km, 71.0° (Epoch: 19 February)

Event Time Altitude Azimuth Distance (km) Brightness Sun altitude
Rises 23:29:56 0° 193° (SSW) 3,428 6.5 -25.9°
Reaches altitude 10° 23:32:48 10° 180° (S) 2,486 5.4 -26.1°
Maximum altitude 23:37:35 27° 123° (ESE) 1,587 3.6 -26.6°
Enters shadow 23:38:20 26° 110° (ESE) 1,613 3.5 -26.7°
